[[{"header":{"parameterUnit":"m.s-1","parameterCategory":1,"la1":30.2991,"la2":30.254,"lo1":-89.0895,"lo2":-89.0444,"dy":0.0017,"dx":0.0017,"nx":28,"ny":28,"refTime":"2024-10-12T09:00:00:Z","depth":0,"parameterNumber":2,"parameterNumberName":"U-component_of_WINDS"},"data":[0,0,0,0,0,0,0,0,0,0,0,0,0,0,0,0,0,0,0,0,0,0,0,0,0,0,0,0,0,0,0,0,0,0,0,0,0,0,0,0,0,0,0,0,0,0,0,0,0,0,0,0,0,0,0,0,0,0,-2.0371,-2.0371,0,-2.0436,-2.0437,-2.0438,-2.0385,-2.0383,-2.038,-2.0378,-2.0448,-2.0452,-2.0456,0,0,0,0,0,0,0,0,0,0,0,0,0,-2.0202,-2.0206,-2.0371,-2.0371,-2.0372,-2.0436,-2.0437,-2.0438,-2.0385,-2.0383,-2.038,-2.0377,-2.0447,-2.0451,-2.0456,0,0,0,0,0,0,0,0,0,0,0,0,0,-2.0272,-2.0207,-2.0371,-2.0354,-2.0353,-2.0436,-2.0437,-2.0438,-2.0386,-2.0383,-2.0379,-2.0376,-2.0445,-2.0451,-2.0457,-2.056,0,0,-2.0475,-2.0477,0,0,0,0,0,0,0,0,-2.0269,-2.0279,-2.0355,-2.0355,-2.0354,-2.0399,-2.0403,-2.0479,-2.0387,-2.0374,-2.0378,-2.0374,-2.0434,-2.0441,-2.0461,-2.0564,-2.0567,-2.0475,-2.0479,-2.0481,-2.0483,0,0,0,0,0,0,0,-2.0264,-2.0276,-2.0397,-2.0357,-2.0356,-2.0344,-2.035,-2.0417,-2.0422,-2.0374,-2.0371,-2.0379,-2.0433,-2.0455,-2.0462,-2.0568,-2.0475,-2.048,-2.0484,-2.0486,-2.076,-2.0764,0,0,0,0,0,0,-2.026,-2.0272,-2.0395,-2.0399,-2.0302,-2.0349,-2.0356,-2.0388,-2.0421,-2.0423,-2.0382,-2.0376,-2.0447,-2.0455,-2.0464,-2.0589,-2.0481,-2.0487,-2.049,-2.0756,-2.0761,-2.0765,0,0,0,0,0,0,-2.0257,-2.0272,-2.0392,-2.0334,-2.0349,-2.0356,-2.0392,-2.0391,-2.0413,-2.0427,-2.0428,-2.0403,-2.0444,-2.0456,-2.0537,-2.0591,-2.0489,-2.0495,-2.0752,-2.0758,-2.0763,-2.0839,0,0,0,0,0,0,-2.0252,-2.0271,-2.031,-2.0336,-2.0352,-2.0463,-2.0395,-2.0395,-2.0423,-2.0416,-2.0447,-2.0449,-2.0443,-2.0528,-2.0543,-2.0597,-2.0499,-2.0747,-2.0755,-2.0761,-2.0832,-2.0846,-2.0859,0,0,0,0,0,-2.0246,-2.0329,-2.0312,-2.0327,-2.0401,-2.0466,-2.0476,-2.0466,-2.0427,-2.0467,-2.0476,-2.0448,-2.0582,-2.0537,-2.0553,-2.061,-2.0744,-2.0753,-2.0761,-2.0825,-2.0843,-2.0859,0,0,0,0,0,0,-2.031,-2.0332,-2.0313,-2.0406,-2.0435,-2.0457,-2.0507,-2.0485,-2.0526,-2.0518,-2.0506,-2.0513,-2.0599,-2.0612,-2.0561,-2.0712,-2.0657,-2.0669,-2.0701,-2.0718,-2.0731,-2.0727,-2.0504,0,0,0,0,0,-2.0334,-2.0385,-2.0402,-2.0482,-2.0497,-2.05,-2.0528,-2.0518,-2.0548,-2.056,-2.0574,-2.0605,-2.0654,-2.0686,-2.0732,-2.0833,-2.084,-2.088,-2.0893,-2.0904,-2.0915,-2.0971,-2.0989,-2.0793,-2.0793,-2.0792,0,0,-2.0386,-2.0404,-2.0437,-2.0495,-2.0516,-2.057,-2.051,-2.0569,-2.061,-2.0569,-2.0646,-2.0658,-2.0691,-2.0783,-2.0824,-2.0797,-2.0971,-2.0915,-2.0924,-2.0929,-2.0982,-2.1,-2.1017,-2.0798,-2.0797,-2.0796,0,0,-2.0508,-2.0526,-2.0596,-2.0618,-2.065,-2.0651,-2.0668,-2.0694,-2.07,-2.0778,-2.0748,-2.0796,-2.0881,-2.0905,-2.0929,-2.1061,-2.1037,-2.1076,-2.1148,-2.1203,-2.1218,-2.1232,-2.128,-2.1298,-2.1087,-2.1087,-2.1087,0,-2.0568,-2.0647,-2.0634,-2.0696,-2.0723,-2.0688,-2.0759,-2.0781,-2.0827,-2.0847,-2.0815,-2.0921,-2.094,-2.1038,-2.107,-2.109,-2.111,-2.1073,-2.1217,-2.123,-2.1243,-2.1289,-2.1307,-2.1092,-2.1091,-2.1091,-2.109,0,-2.0721,-2.0776,-2.0829,-2.0873,-2.0906,-2.0972,-2.097,-2.1005,-2.0993,-2.0997,-2.1077,-2.1099,-2.115,-2.1172,-2.116,-2.1268,-2.1251,-2.1218,-2.1162,-2.1267,-2.131,-2.1327,-2.1098,-2.1097,-2.1095,-2.1094,0,0,-2.0885,-2.0922,-2.0941,-2.0962,-2.0995,-2.1038,-2.1103,-2.1151,-2.1182,-2.1215,-2.127,-2.1342,-2.1312,-2.1339,-2.133,-2.1378,-2.1483,-2.134,-2.134,-2.1367,-2.1605,-2.163,-2.165,-2.1466,-2.1469,-2.1472,-2.1602,0,-2.1009,-2.1121,-2.1112,-2.1219,-2.1271,-2.1238,-2.1294,-2.1321,-2.1328,-2.1373,-2.138,-2.1432,-2.1388,-2.1405,-2.145,-2.146,-2.153,-2.145,-2.1519,-2.1521,-2.1513,-2.1673,-2.1699,-2.1821,-2.1619,-2.1622,-2.1624,0,-2.1169,-2.1208,-2.132,-2.1346,-2.1367,-2.1418,-2.1462,-2.1505,-2.1536,-2.1537,-2.1567,-2.1551,-2.1617,-2.1559,-2.1651,-2.1597,-2.1624,-2.1633,-2.1638,-2.1645,-2.158,-2.1686,-2.186,-2.1879,-2.165,-2.1648,-2.1646,0,-2.128,-2.1359,-2.1437,-2.1455,-2.1487,-2.1524,-2.1539,-2.1565,-2.1595,-2.1634,-2.1654,-2.17,-2.1726,-2.1762,-2.1759,-2.1716,-2.1853,-2.1794,-2.1857,-2.1858,-2.1889,-2.1887,-2.2071,-2.1904,-2.1904,-2.1903,-2.1903,0,-2.1421,-2.1491,-2.1487,-2.1535,-2.1612,-2.1601,-2.1679,-2.169,-2.1714,-2.1764,-2.1738,-2.1786,-2.1778,-2.1826,-2.1823,-2.1901,-2.1912,-2.1916,-2.1915,-2.1919,-2.1919,-2.1938,-2.193,-2.1908,-2.1907,-2.1906,-2.1905,0,-2.1557,-2.1557,-2.164,-2.1663,-2.1671,-2.1727,-2.1748,-2.1794,-2.1797,-2.1861,-2.1876,-2.1882,-2.1938,-2.1937,-2.2,-2.1999,-2.2094,-2.2083,-2.2084,-2.2082,-2.2146,-2.2141,-2.235,-2.2378,-2.2191,-2.2193,-2.2194,0,-2.1648,-2.1701,-2.173,-2.1762,-2.1779,-2.183,-2.186,-2.1851,-2.1884,-2.1923,-2.1965,-2.2017,-2.2059,-2.2149,-2.216,-2.2209,-2.2199,-2.2269,-2.2206,-2.221,-2.2202,-2.22,-2.2206,-2.2282,-2.2284,-2.2286,-2.2287,0,-2.1809,-2.1807,-2.1851,-2.1896,-2.1933,-2.1969,-2.2001,-2.2028,-2.2023,-2.2061,-2.2117,-2.215,-2.2214,-2.2268,-2.2314,-2.2331,-2.2309,-2.2307,-2.2324,-2.233,-2.2329,-2.2332,-2.2119,-2.2302,-2.2301,-2.23,-2.2299,-2.2298,-2.1927,-2.1973,-2.2001,-2.2052,-2.2075,-2.2106,-2.215,-2.216,-2.2206,-2.2257,-2.2249,-2.2312,-2.2342,-2.2402,-2.2423,-2.2473,-2.2448,-2.2473,-2.248,-2.2487,-2.2494,-2.232,-2.2481,-2.2481,-2.248,-2.248,-2.2479,0,-2.2088,-2.2104,-2.2151,-2.2197,-2.2237,-2.2212,-2.2247,-2.2282,-2.2338,-2.2367,-2.2409,-2.2474,-2.2525,-2.254,-2.259,-2.2628,-2.2619,-2.2641,-2.2639,-2.2644,-2.2512,-2.2493,-2.2647,-2.2647,-2.2647,-2.2647,-2.2647,-2.2647,-2.2176,-2.2254,-2.2255,-2.2343,-2.2359,-2.242,-2.2442,-2.2471,-2.2495,-2.2568,-2.2611,-2.262,-2.2644,-2.2696,-2.2742,-2.2745,-2.2766,-2.2793,-2.2792,-2.2669,-2.2653,-2.2637,-2.2618,-2.2797,-2.2797,-2.2919,-2.292,-2.2921]},{"header":{"parameterUnit":"m.s-1","parameterCategory":1,"la1":30.2991,"la2":30.254,"lo1":-89.0895,"lo2":-89.0444,"dy":0.0017,"dx":0.0017,"nx":28,"ny":28,"refTime":"2024-10-12T09:00:00:Z","depth":0,"parameterNumber":3,"parameterNumberName":"V-component_of_WINDS"},"data":[0,0,0,0,0,0,0,0,0,0,0,0,0,0,0,0,0,0,0,0,0,0,0,0,0,0,0,0,0,0,0,0,0,0,0,0,0,0,0,0,0,0,0,0,0,0,0,0,0,0,0,0,0,0,0,0,0,0,-1.6005,-1.6005,0,-1.6003,-1.6003,-1.6003,-1.595,-1.5949,-1.5947,-1.5946,-1.5944,-1.5945,-1.5946,0,0,0,0,0,0,0,0,0,0,0,0,0,-1.5963,-1.5964,-1.6005,-1.6005,-1.6005,-1.6003,-1.6003,-1.6003,-1.595,-1.5949,-1.5947,-1.5945,-1.5944,-1.5945,-1.5946,0,0,0,0,0,0,0,0,0,0,0,0,0,-1.5973,-1.5965,-1.6005,-1.5978,-1.5976,-1.6003,-1.6003,-1.6003,-1.5951,-1.5949,-1.5947,-1.5945,-1.5943,-1.5945,-1.5947,-1.5998,0,0,-1.5952,-1.5953,0,0,0,0,0,0,0,0,-1.5973,-1.5975,-1.5982,-1.598,-1.5978,-1.5975,-1.5987,-1.6001,-1.5951,-1.596,-1.5946,-1.5944,-1.5956,-1.5956,-1.596,-1.5998,-1.5998,-1.5952,-1.5953,-1.5954,-1.5955,0,0,0,0,0,0,0,-1.5972,-1.5975,-1.6004,-1.5983,-1.598,-1.5966,-1.5966,-1.5989,-1.5969,-1.5959,-1.5956,-1.5956,-1.5954,-1.5959,-1.596,-1.5998,-1.5952,-1.5954,-1.5955,-1.5956,-1.6078,-1.608,0,0,0,0,0,0,-1.5975,-1.5974,-1.6004,-1.6004,-1.597,-1.5969,-1.5968,-1.5978,-1.5969,-1.5966,-1.5958,-1.5954,-1.5957,-1.5958,-1.596,-1.602,-1.5954,-1.5956,-1.5957,-1.6076,-1.6078,-1.608,0,0,0,0,0,0,-1.5974,-1.5978,-1.6004,-1.5988,-1.599,-1.5972,-1.5983,-1.5979,-1.5983,-1.5968,-1.5964,-1.5966,-1.5955,-1.5957,-1.5989,-1.6019,-1.5957,-1.5958,-1.6073,-1.6076,-1.6079,-1.614,0,0,0,0,0,0,-1.5973,-1.5978,-1.5998,-1.5989,-1.5991,-1.6034,-1.5985,-1.598,-1.5987,-1.5981,-1.5975,-1.5972,-1.5954,-1.5987,-1.5991,-1.602,-1.596,-1.607,-1.6074,-1.6078,-1.6136,-1.6145,-1.6153,0,0,0,0,0,-1.5972,-1.6015,-1.5999,-1.6003,-1.6016,-1.6036,-1.6037,-1.6015,-1.5989,-1.6009,-1.5999,-1.5972,-1.6015,-1.599,-1.5995,-1.6025,-1.6068,-1.6073,-1.6078,-1.6131,-1.6143,-1.6153,0,0,0,0,0,0,-1.6029,-1.6014,-1.5996,-1.6037,-1.6038,-1.6027,-1.6051,-1.6029,-1.6037,-1.6032,-1.6004,-1.6003,-1.6039,-1.6035,-1.6008,-1.6074,-1.6037,-1.6043,-1.6076,-1.6087,-1.6096,-1.6097,-1.5961,0,0,0,0,0,-1.6046,-1.6064,-1.6049,-1.6087,-1.6089,-1.607,-1.6078,-1.6061,-1.6061,-1.6061,-1.6053,-1.6054,-1.6067,-1.6077,-1.6088,-1.6134,-1.6132,-1.6157,-1.6166,-1.6174,-1.6179,-1.6203,-1.6214,-1.6096,-1.6096,-1.6096,0,0,-1.6082,-1.6076,-1.6089,-1.6099,-1.6097,-1.6116,-1.6071,-1.6092,-1.6106,-1.6064,-1.6094,-1.6088,-1.6087,-1.6126,-1.6143,-1.6124,-1.6211,-1.618,-1.6186,-1.6188,-1.621,-1.6221,-1.6231,-1.61,-1.6099,-1.6099,0,0,-1.6157,-1.6154,-1.6186,-1.6185,-1.6183,-1.617,-1.6178,-1.617,-1.6164,-1.6194,-1.6162,-1.6178,-1.6202,-1.6202,-1.6206,-1.628,-1.6256,-1.6285,-1.6332,-1.6356,-1.6365,-1.6373,-1.64,-1.641,-1.629,-1.6291,-1.6291,0,-1.6202,-1.6229,-1.6205,-1.6228,-1.6234,-1.6196,-1.6227,-1.6228,-1.623,-1.6235,-1.6213,-1.6242,-1.6239,-1.6277,-1.6296,-1.6299,-1.6307,-1.6286,-1.6366,-1.6374,-1.6381,-1.6406,-1.6416,-1.6294,-1.6294,-1.6293,-1.6293,0,-1.6285,-1.6304,-1.6329,-1.6333,-1.634,-1.6368,-1.6347,-1.6358,-1.634,-1.633,-1.636,-1.6354,-1.6364,-1.6371,-1.6354,-1.6408,-1.6396,-1.6371,-1.6332,-1.6396,-1.642,-1.6429,-1.6299,-1.6298,-1.6297,-1.6296,0,0,-1.6397,-1.6385,-1.6395,-1.6396,-1.6391,-1.6405,-1.6431,-1.644,-1.645,-1.6453,-1.6473,-1.6494,-1.647,-1.6474,-1.6456,-1.6477,-1.6537,-1.6449,-1.6449,-1.6466,-1.6596,-1.6616,-1.6627,-1.6521,-1.6522,-1.6524,-1.6596,0,-1.647,-1.6514,-1.6491,-1.6537,-1.6555,-1.6519,-1.6541,-1.654,-1.6531,-1.6544,-1.6533,-1.6548,-1.6515,-1.6517,-1.6536,-1.6526,-1.6563,-1.652,-1.654,-1.6541,-1.6542,-1.664,-1.6661,-1.673,-1.6605,-1.6607,-1.6608,0,-1.6562,-1.6568,-1.6616,-1.6607,-1.6613,-1.6634,-1.664,-1.6653,-1.6651,-1.6643,-1.6647,-1.6624,-1.6649,-1.661,-1.6643,-1.6615,-1.6621,-1.6617,-1.6619,-1.6621,-1.6579,-1.6645,-1.6751,-1.6762,-1.6622,-1.6621,-1.662,0,-1.664,-1.666,-1.6691,-1.6692,-1.6683,-1.6698,-1.6695,-1.6691,-1.6698,-1.6703,-1.6707,-1.6716,-1.6721,-1.6728,-1.6708,-1.6682,-1.6744,-1.6704,-1.6738,-1.6738,-1.6753,-1.6753,-1.6863,-1.6756,-1.6756,-1.6756,-1.6756,0,-1.6724,-1.6755,-1.6725,-1.6745,-1.6778,-1.6752,-1.6785,-1.6778,-1.6775,-1.6792,-1.6761,-1.6778,-1.675,-1.6764,-1.6748,-1.6778,-1.6781,-1.6775,-1.677,-1.6778,-1.6779,-1.6783,-1.6778,-1.6759,-1.6758,-1.6758,-1.6757,0,-1.6817,-1.6798,-1.683,-1.6818,-1.6816,-1.6841,-1.683,-1.6848,-1.6835,-1.6857,-1.6861,-1.6842,-1.6857,-1.6837,-1.685,-1.684,-1.6881,-1.6869,-1.6882,-1.6879,-1.6914,-1.6911,-1.7031,-1.7046,-1.6929,-1.6931,-1.6931,0,-1.6873,-1.6895,-1.6886,-1.6895,-1.6893,-1.6908,-1.6915,-1.689,-1.6898,-1.6897,-1.6915,-1.6927,-1.6935,-1.696,-1.6948,-1.6958,-1.6946,-1.6987,-1.6947,-1.6954,-1.6947,-1.6947,-1.6949,-1.6996,-1.6997,-1.6998,-1.6999,0,-1.6974,-1.6963,-1.6974,-1.6981,-1.699,-1.6995,-1.6997,-1.7007,-1.698,-1.6991,-1.7005,-1.7012,-1.7025,-1.7037,-1.7043,-1.704,-1.7016,-1.7012,-1.702,-1.7029,-1.7036,-1.7033,-1.6905,-1.7009,-1.7008,-1.7008,-1.7007,-1.7007,-1.705,-1.7068,-1.7064,-1.7077,-1.7076,-1.7079,-1.7095,-1.7084,-1.7096,-1.7104,-1.7088,-1.7107,-1.7104,-1.711,-1.7109,-1.7123,-1.7105,-1.7117,-1.7121,-1.7124,-1.713,-1.7033,-1.7124,-1.7123,-1.7123,-1.7123,-1.7123,0,-1.715,-1.7145,-1.7157,-1.7161,-1.7171,-1.7147,-1.7148,-1.7158,-1.7175,-1.7174,-1.7182,-1.7199,-1.7211,-1.7199,-1.7208,-1.7222,-1.7211,-1.7225,-1.7225,-1.7224,-1.7145,-1.7137,-1.7234,-1.7234,-1.7234,-1.7234,-1.7234,-1.7234,-1.7203,-1.7233,-1.7222,-1.7251,-1.7246,-1.7263,-1.7266,-1.7269,-1.7268,-1.7288,-1.7297,-1.7289,-1.7284,-1.7292,-1.7302,-1.7298,-1.7303,-1.7322,-1.7314,-1.7241,-1.723,-1.7219,-1.7212,-1.7323,-1.7323,-1.7392,-1.7393,-1.7394]}]]